(306) Unitas
ephemeris date magn radius delta ra dec elong phase
Today26 Jul 202610.91.999 AU1.013 AU21h34m-11°55'160.5°9.8°
Opposition10 Aug 202610.42.002 AU0.988 AU21h23m-14°19'178.5°0.8°
(306) Unitas - 2026-07-26
astro.vanbuitenen.nl


 
-1 year
-1 month
-1 day
Now
+1 day
+1 month
+1 year

The interactive orbit chart above shows the body's path through the solar system and its position at the given date. Green and blue lines are shown perpendicular to the ecliptic plane: Green if the path is above the ecliptic plane, blue if it is below. (Left-click and drag to rotate the view; Right-click and drag to move the view; Use scroll wheel to zoom in our out.)

The orbital elements of Unitas are:

            e (Eccentricity)                : 0.1521156
            a (Semimajor axis)              : 2.3577466
            i (Inclination)                 : 7.27826
            Ω (Longitude of ascending node) : 141.77959
            ω (Argument of perihelion)      : 167.87702
            M (Mean anomaly)                : 349.11338
            Epoch                           : 2026 Jun 09

            L (Longitude of perihelion)     : 129.75143
            B (Latitude of perihelion)      : 1.52458
            P (Orbital period in years)     : 3.62            
        

The light curve chart below shows the estimated development of the minor planet's magnitude.


The all-sky chart below shows the path of the minor planet over the same period as the light curve. The current position is marked yellow.





The following chart shows the path of the minor planet in the next few days. The field of view is optimized for (~10x50) binoculars and finderscopes.




Ephemerides:
Date       Time       RA (2000)    DEC (2000)    delta   radius  elong  phase   PA    magn
2026-07-26 00:00 UT   21 34 33.2   -11 55 18     1.013    1.999  160.5    9.8   245   10.9 
2026-07-26 07:02 UT   21 34 22.6   -11 57 45     1.012    1.999  160.8    9.6   245   10.9 
2026-07-27 00:00 UT   21 33 56.4   -12 03 43     1.010    1.999  161.6    9.2   244   10.9 
2026-07-28 00:00 UT   21 33 18.4   -12 12 19     1.007    2.000  162.8    8.6   244   10.9 
2026-07-29 00:00 UT   21 32 39.3   -12 21 03     1.004    2.000  163.9    8.1   244   10.8 
2026-07-30 00:00 UT   21 31 59.0   -12 29 56     1.002    2.000  165.1    7.5   244   10.8 
2026-07-31 00:00 UT   21 31 17.6   -12 38 57     0.999    2.000  166.3    6.9   244   10.8 
2026-08-01 00:00 UT   21 30 35.3   -12 48 05     0.997    2.000  167.4    6.3   243   10.7 
2026-08-02 00:00 UT   21 29 52.1   -12 57 20     0.995    2.000  168.6    5.8   243   10.7 
2026-08-03 00:00 UT   21 29 08.0   -13 06 42     0.994    2.000  169.8    5.2   242   10.7 
2026-08-04 00:00 UT   21 28 23.1   -13 16 09     0.992    2.001  171.0    4.6   242   10.6 
2026-08-05 00:00 UT   21 27 37.6   -13 25 41     0.991    2.001  172.1    4.0   241   10.6 
2026-08-06 00:00 UT   21 26 51.4   -13 35 17     0.990    2.001  173.3    3.4   240   10.6 
2026-08-07 00:00 UT   21 26 04.7   -13 44 57     0.989    2.001  174.5    2.8   238   10.5 
2026-08-08 00:00 UT   21 25 17.6   -13 54 40     0.989    2.001  175.7    2.2   236   10.5 
2026-08-09 00:00 UT   21 24 30.1   -14 04 26     0.988    2.002  176.8    1.6   232   10.4 
2026-08-10 00:00 UT   21 23 42.4   -14 14 12     0.988    2.002  178.0    1.0   223   10.4 
2026-08-11 00:00 UT   21 22 54.5   -14 23 60     0.989    2.002  178.9    0.5   195   10.3 
2026-08-12 00:00 UT   21 22 06.5   -14 33 47     0.989    2.002  179.0    0.5   125   10.3 
2026-08-13 00:00 UT   21 21 18.6   -14 43 34     0.990    2.003  178.1    1.0    93   10.4 
2026-08-14 00:00 UT   21 20 30.8   -14 53 20     0.991    2.003  176.9    1.5    84   10.4 
2026-08-15 00:00 UT   21 19 43.2   -15 03 03     0.992    2.003  175.8    2.1    79   10.5 
2026-08-16 00:00 UT   21 18 55.9   -15 12 44     0.993    2.003  174.6    2.7    77   10.5 
2026-08-17 00:00 UT   21 18 09.1   -15 22 21     0.995    2.004  173.4    3.3    75   10.6 
2026-08-18 00:00 UT   21 17 22.7   -15 31 53     0.996    2.004  172.2    3.9    74   10.6 
2026-08-19 00:00 UT   21 16 37.0   -15 41 21     0.998    2.004  171.1    4.5    73   10.6 
2026-08-20 00:00 UT   21 15 51.9   -15 50 44     1.001    2.005  169.9    5.1    73   10.7 
2026-08-21 00:00 UT   21 15 07.6   -16 00 00     1.003    2.005  168.7    5.7    72   10.7 
2026-08-22 00:00 UT   21 14 24.2   -16 09 10     1.006    2.006  167.5    6.3    72   10.7 
2026-08-23 00:00 UT   21 13 41.6   -16 18 12     1.009    2.006  166.3    6.8    72   10.8 
2026-08-24 00:00 UT   21 13 00.1   -16 27 07     1.012    2.006  165.2    7.4    71   10.8 
2026-08-25 00:00 UT   21 12 19.7   -16 35 54     1.016    2.007  164.0    8.0    71   10.8 


    Terminology:
            
    delta:  distance between minor planet and earth in AU
    radius: distance between minor planet and sun in AU
    magn:   magnitude (brightness) estimate    
    ra:     right ascension in hours (24h = 360deg)
    dec:    declination in degrees
    elong:  elongation in degrees (angle sun-earth-minor planet)    
    phase:  phase angle in degrees (angle sun-minor planet-earth)        
    AU:     Astronomical Unit (mean distance between earth and sun: 149597870.7 km
    

Orbital elements provided by the MPC (Minor Planet Center).
Calculations by a modified version of AAPlus, a C# implementation of the AA+ project by PJ Naughter from the algorithms presented in the book "Astronomical Algorithms" by Jean Meeus.
NGC2000 dso catalog and star labels from VizieR as provided by the Strasbourg astronomical Data Center.
Tycho2 catalog from the ESO archive.